NSZ2066 EKCH-LKPR

Flight info

Callsign NSZ2066
Flight time 0h 58m
Altitude 37000
Route SALLO M44 KOGIM M725 MASOR DCT LUROS M725 HDO DCT GOLOP
Aircraft B38M/M-SDE1FGHILORVWXY/HB1

Departure

Time 2026-05-05 17:13
Airport Copenhagen Kastrup Airport (EKCH)

Arrival

Time 2026-05-05 18:12
Airport Václav Havel Airport Prague (LKPR)
Time Latitude Longitude Altitude Speed Heading
2026-05-05 16:56 55.62703 12.64167 26 ft 0 kts 33°
2026-05-05 17:05 55.62692 12.64154 31 ft 2 kts 33°
2026-05-05 17:05 55.62678 12.64138 28 ft 2 kts 33°
2026-05-05 17:06 55.62664 12.64122 31 ft 2 kts 33°
2026-05-05 17:06 55.62651 12.64107 27 ft 2 kts 33°
2026-05-05 17:06 55.62645 12.64084 32 ft 2 kts 117°
2026-05-05 17:06 55.62643 12.64089 29 ft 2 kts 123°
2026-05-05 17:07 55.62635 12.64110 29 ft 2 kts 123°
2026-05-05 17:07 55.62632 12.64116 30 ft 0 kts 123°
2026-05-05 17:09 55.62621 12.64145 29 ft 8 kts 123°
2026-05-05 17:09 55.62565 12.64297 30 ft 22 kts 123°
2026-05-05 17:09 55.62465 12.64568 28 ft 28 kts 123°
2026-05-05 17:09 55.62364 12.64779 26 ft 16 kts 168°
2026-05-05 17:10 55.62244 12.64789 26 ft 18 kts 187°
2026-05-05 17:10 55.62128 12.64674 27 ft 20 kts 213°
2026-05-05 17:10 55.62000 12.64531 27 ft 23 kts 206°
2026-05-05 17:10 55.61838 12.64528 28 ft 25 kts 169°
2026-05-05 17:11 55.61662 12.64546 26 ft 27 kts 206°
2026-05-05 17:11 55.61502 12.64365 26 ft 29 kts 213°
2026-05-05 17:11 55.61330 12.64165 28 ft 31 kts 213°
2026-05-05 17:11 55.61145 12.63954 28 ft 32 kts 213°
2026-05-05 17:12 55.60952 12.63727 28 ft 34 kts 211°
2026-05-05 17:12 55.60816 12.63590 28 ft 15 kts 185°
2026-05-05 17:12 55.60735 12.63704 26 ft 16 kts 131°
2026-05-05 17:12 55.60680 12.63856 28 ft 12 kts 79°
2026-05-05 17:13 55.60761 12.63999 28 ft 32 kts 41°
2026-05-05 17:13 55.61124 12.64561 29 ft 105 kts 40°
2026-05-05 17:13 55.61822 12.65642 97 ft 153 kts 38°
2026-05-05 17:13 55.62630 12.66931 737 ft 160 kts 38°
2026-05-05 17:14 55.63498 12.68291 1341 ft 172 kts 36°
2026-05-05 17:14 55.64433 12.69724 1954 ft 183 kts 37°
2026-05-05 17:14 55.65438 12.71238 2462 ft 200 kts 36°
2026-05-05 17:14 55.66552 12.72894 2958 ft 219 kts 37°
2026-05-05 17:15 55.67752 12.74682 3435 ft 228 kts 37°
2026-05-05 17:15 55.68982 12.76519 3944 ft 233 kts 37°
2026-05-05 17:15 55.70061 12.78692 4619 ft 243 kts 60°
2026-05-05 17:15 55.70480 12.81639 5394 ft 253 kts 90°
2026-05-05 17:16 55.70073 12.84723 6088 ft 265 kts 118°
2026-05-05 17:16 55.68889 12.87246 6588 ft 276 kts 147°
2026-05-05 17:16 55.67151 12.88683 7112 ft 278 kts 163°
2026-05-05 17:16 55.65321 12.89906 7897 ft 283 kts 163°
2026-05-05 17:17 55.63452 12.91166 8699 ft 289 kts 163°
2026-05-05 17:17 55.61557 12.92442 9515 ft 293 kts 163°
2026-05-05 17:17 55.59661 12.93718 10246 ft 299 kts 163°
2026-05-05 17:17 55.57668 12.95058 10791 ft 311 kts 163°
2026-05-05 17:18 55.55601 12.96445 11422 ft 321 kts 164°
2026-05-05 17:18 55.53499 12.97855 12087 ft 330 kts 164°
2026-05-05 17:18 55.51336 12.99304 12863 ft 335 kts 164°
2026-05-05 17:18 55.49137 13.00774 13634 ft 342 kts 164°
2026-05-05 17:19 55.46896 13.02273 14387 ft 345 kts 165°
2026-05-05 17:19 55.44626 13.03787 15186 ft 349 kts 165°
2026-05-05 17:19 55.42372 13.05290 15973 ft 353 kts 165°
2026-05-05 17:19 55.40056 13.06833 16746 ft 357 kts 165°
2026-05-05 17:20 55.37713 13.08391 17502 ft 361 kts 165°
2026-05-05 17:20 55.35350 13.09960 18249 ft 365 kts 165°
2026-05-05 17:20 55.33769 13.11008 18661 ft 368 kts 165°
2026-05-05 17:20 55.30545 13.13144 19524 ft 372 kts 165°
2026-05-05 17:21 55.28135 13.14738 20142 ft 375 kts 165°
2026-05-05 17:21 55.25674 13.16363 20759 ft 379 kts 165°
2026-05-05 17:21 55.23198 13.17997 21377 ft 382 kts 165°
2026-05-05 17:22 55.18207 13.21282 22571 ft 388 kts 166°
2026-05-05 17:22 55.15663 13.22954 23161 ft 392 kts 166°
2026-05-05 17:22 55.13096 13.24638 23697 ft 395 kts 166°
2026-05-05 17:22 55.10514 13.26329 24191 ft 398 kts 166°
2026-05-05 17:23 55.07911 13.28033 24680 ft 400 kts 167°
2026-05-05 17:23 55.05286 13.29748 25161 ft 403 kts 167°
2026-05-05 17:23 55.02676 13.31451 25634 ft 405 kts 167°
2026-05-05 17:23 55.00019 13.33182 26110 ft 407 kts 167°
2026-05-05 17:24 54.97347 13.34922 26568 ft 410 kts 168°
2026-05-05 17:24 54.94660 13.36668 27010 ft 413 kts 168°
2026-05-05 17:24 54.91984 13.38358 27437 ft 412 kts 172°
2026-05-05 17:24 54.89215 13.39262 27840 ft 405 kts 180°
2026-05-05 17:25 54.86414 13.40016 28232 ft 409 kts 180°
2026-05-05 17:25 54.84543 13.40528 28526 ft 410 kts 180°
2026-05-05 17:25 54.80754 13.41553 29076 ft 413 kts 180°
2026-05-05 17:25 54.77890 13.42324 29491 ft 416 kts 180°
2026-05-05 17:26 54.75058 13.43085 29889 ft 418 kts 180°
2026-05-05 17:26 54.72171 13.43859 30233 ft 420 kts 180°
2026-05-05 17:26 54.69273 13.44636 30558 ft 422 kts 180°
2026-05-05 17:26 54.66360 13.45415 30886 ft 424 kts 180°
2026-05-05 17:27 54.63420 13.46200 31189 ft 427 kts 180°
2026-05-05 17:27 54.60478 13.46985 31515 ft 429 kts 179°
2026-05-05 17:27 54.57552 13.47764 31830 ft 431 kts 179°
2026-05-05 17:27 54.54575 13.48556 32147 ft 433 kts 179°
2026-05-05 17:28 54.51580 13.49351 32472 ft 435 kts 179°
2026-05-05 17:28 54.48610 13.50138 32782 ft 436 kts 179°
2026-05-05 17:28 54.45599 13.50935 33094 ft 438 kts 179°
2026-05-05 17:28 54.42580 13.51733 33478 ft 438 kts 179°
2026-05-05 17:29 54.39577 13.52526 33938 ft 436 kts 179°
2026-05-05 17:29 54.36577 13.53318 34306 ft 435 kts 179°
2026-05-05 17:29 54.33618 13.54096 34609 ft 435 kts 179°
2026-05-05 17:29 54.30618 13.54885 34915 ft 436 kts 178°
2026-05-05 17:30 54.27613 13.55673 35214 ft 436 kts 178°
2026-05-05 17:30 54.24644 13.56451 35502 ft 436 kts 178°
2026-05-05 17:30 54.21634 13.57239 35793 ft 436 kts 178°
2026-05-05 17:30 54.18634 13.58022 36085 ft 436 kts 178°
2026-05-05 17:31 54.15625 13.58807 36362 ft 437 kts 178°
2026-05-05 17:31 54.12617 13.59591 36634 ft 437 kts 177°
2026-05-05 17:31 54.09638 13.60365 36872 ft 438 kts 177°
2026-05-05 17:32 54.03614 13.61928 36903 ft 436 kts 177°
2026-05-05 17:32 53.98608 13.63224 36902 ft 437 kts 177°
2026-05-05 17:33 53.91575 13.65039 36901 ft 437 kts 177°
2026-05-05 17:33 53.85595 13.66577 36898 ft 438 kts 177°
2026-05-05 17:34 53.79557 13.68126 36899 ft 438 kts 177°
2026-05-05 17:34 53.73512 13.69673 36894 ft 441 kts 177°
2026-05-05 17:35 53.67376 13.71237 36887 ft 450 kts 177°
2026-05-05 17:35 53.62198 13.72554 36884 ft 454 kts 177°
2026-05-05 17:36 53.55936 13.74143 36889 ft 455 kts 177°
2026-05-05 17:36 53.49680 13.75724 36884 ft 455 kts 177°
2026-05-05 17:37 53.43416 13.77304 36882 ft 455 kts 177°
2026-05-05 17:37 53.37146 13.78880 36881 ft 456 kts 177°
2026-05-05 17:38 53.30877 13.80451 36877 ft 455 kts 177°
2026-05-05 17:38 53.24600 13.82020 36870 ft 456 kts 177°
2026-05-05 17:39 53.18326 13.83583 36866 ft 455 kts 177°
2026-05-05 17:39 53.12061 13.85139 36862 ft 455 kts 177°
2026-05-05 17:40 53.05835 13.86681 36860 ft 455 kts 177°
2026-05-05 17:40 52.99533 13.88238 36859 ft 454 kts 177°
2026-05-05 17:41 52.93320 13.89768 36854 ft 454 kts 177°
2026-05-05 17:41 52.87082 13.91299 36848 ft 451 kts 177°
2026-05-05 17:42 52.80868 13.92820 36847 ft 451 kts 177°
2026-05-05 17:42 52.74657 13.94336 36841 ft 451 kts 177°
2026-05-05 17:43 52.68457 13.95846 36838 ft 450 kts 177°
2026-05-05 17:43 52.62274 13.97346 36834 ft 449 kts 177°
2026-05-05 17:44 52.56082 13.98845 36826 ft 449 kts 177°
2026-05-05 17:44 52.49907 14.00335 36826 ft 448 kts 177°
2026-05-05 17:45 52.43774 14.01811 36827 ft 448 kts 177°
2026-05-05 17:45 52.37606 14.03290 36828 ft 448 kts 177°
2026-05-05 17:46 52.31449 14.04764 36823 ft 447 kts 177°
2026-05-05 17:46 52.25292 14.06233 36813 ft 447 kts 177°
2026-05-05 17:47 52.19105 14.07706 36816 ft 447 kts 176°
2026-05-05 17:47 52.12974 14.09160 36810 ft 447 kts 176°
2026-05-05 17:48 52.06837 14.10613 36771 ft 439 kts 176°
2026-05-05 17:48 52.03831 14.11323 36319 ft 431 kts 176°
2026-05-05 17:48 52.00908 14.12011 35817 ft 428 kts 176°
2026-05-05 17:48 51.97958 14.12706 35314 ft 429 kts 176°
2026-05-05 17:49 51.95004 14.13401 34817 ft 429 kts 176°
2026-05-05 17:49 51.92043 14.14096 34334 ft 430 kts 176°
2026-05-05 17:49 51.89082 14.14791 33857 ft 430 kts 176°
2026-05-05 17:49 51.86106 14.15489 33317 ft 431 kts 176°
2026-05-05 17:50 51.83124 14.16186 32773 ft 433 kts 176°
2026-05-05 17:50 51.80136 14.16885 32234 ft 434 kts 176°
2026-05-05 17:50 51.77180 14.17574 31728 ft 435 kts 176°
2026-05-05 17:50 51.74173 14.18275 31217 ft 437 kts 175°
2026-05-05 17:51 51.71170 14.18973 30715 ft 438 kts 175°
2026-05-05 17:51 51.68121 14.19681 30222 ft 440 kts 175°
2026-05-05 17:51 51.65090 14.20385 29708 ft 441 kts 175°
2026-05-05 17:51 51.62035 14.21092 29164 ft 443 kts 175°
2026-05-05 17:52 51.58974 14.21801 28586 ft 444 kts 175°
2026-05-05 17:52 51.55942 14.22502 28049 ft 446 kts 175°
2026-05-05 17:52 51.52868 14.23211 27514 ft 447 kts 175°
2026-05-05 17:52 51.49779 14.23923 26992 ft 448 kts 175°
2026-05-05 17:53 51.46664 14.24640 26475 ft 449 kts 175°
2026-05-05 17:53 51.43560 14.25354 25965 ft 450 kts 175°
2026-05-05 17:53 51.40500 14.26056 25484 ft 451 kts 174°
2026-05-05 17:53 51.37379 14.26772 24999 ft 450 kts 174°
2026-05-05 17:54 51.34286 14.27479 24539 ft 447 kts 174°
2026-05-05 17:54 51.31204 14.28184 24075 ft 444 kts 174°
2026-05-05 17:54 51.28158 14.28880 23617 ft 441 kts 174°
2026-05-05 17:54 51.25129 14.29570 23146 ft 438 kts 174°
2026-05-05 17:55 51.22161 14.30246 22622 ft 432 kts 174°
2026-05-05 17:55 51.19217 14.30915 22115 ft 423 kts 174°
2026-05-05 17:55 51.16325 14.31572 21616 ft 415 kts 174°
2026-05-05 17:55 51.13490 14.32215 21110 ft 408 kts 174°
2026-05-05 17:56 51.10682 14.32851 20627 ft 406 kts 174°
2026-05-05 17:56 51.07888 14.33483 20218 ft 404 kts 174°
2026-05-05 17:56 51.05113 14.34111 19809 ft 401 kts 174°
2026-05-05 17:56 51.02386 14.34726 19429 ft 399 kts 174°
2026-05-05 17:57 50.99638 14.35345 19085 ft 397 kts 174°
2026-05-05 17:57 50.96902 14.35961 18733 ft 395 kts 174°
2026-05-05 17:57 50.94180 14.36574 18390 ft 394 kts 174°
2026-05-05 17:57 50.91491 14.37412 18046 ft 393 kts 168°
2026-05-05 17:58 50.88834 14.38450 17646 ft 390 kts 168°
2026-05-05 17:58 50.86249 14.39431 17246 ft 383 kts 168°
2026-05-05 17:58 50.83652 14.40398 16786 ft 378 kts 168°
2026-05-05 17:58 50.81110 14.41336 16366 ft 373 kts 168°
2026-05-05 17:59 50.78587 14.42263 15942 ft 368 kts 168°
2026-05-05 17:59 50.76098 14.43175 15531 ft 365 kts 168°
2026-05-05 17:59 50.73649 14.44071 15179 ft 364 kts 168°
2026-05-05 17:59 50.71182 14.44973 14815 ft 363 kts 168°
2026-05-05 18:00 50.68721 14.45872 14455 ft 357 kts 168°
2026-05-05 18:00 50.66387 14.46724 14139 ft 339 kts 168°
2026-05-05 18:00 50.64135 14.47545 13813 ft 325 kts 168°
2026-05-05 18:00 50.61950 14.48340 13464 ft 320 kts 168°
2026-05-05 18:01 50.59786 14.49127 13080 ft 317 kts 168°
2026-05-05 18:01 50.57619 14.49425 12681 ft 312 kts 187°
2026-05-05 18:01 50.55563 14.48535 12317 ft 308 kts 205°
2026-05-05 18:01 50.53795 14.46701 11956 ft 299 kts 220°
2026-05-05 18:02 50.52762 14.45269 11730 ft 298 kts 219°
2026-05-05 18:02 50.52758 14.45264 11730 ft 298 kts 219°
2026-05-05 18:02 50.51361 14.43379 11398 ft 297 kts 220°
2026-05-05 18:02 50.49800 14.41250 10935 ft 295 kts 220°
2026-05-05 18:03 50.48349 14.38989 10458 ft 293 kts 231°
2026-05-05 18:03 50.47143 14.36436 10006 ft 288 kts 231°
2026-05-05 18:03 50.45941 14.33951 9654 ft 281 kts 231°
2026-05-05 18:03 50.44774 14.31548 9294 ft 279 kts 231°
2026-05-05 18:04 50.43590 14.29115 8931 ft 280 kts 231°
2026-05-05 18:04 50.42404 14.26679 8546 ft 280 kts 231°
2026-05-05 18:04 50.41233 14.24278 8177 ft 279 kts 231°
2026-05-05 18:04 50.40071 14.21896 7809 ft 270 kts 230°
2026-05-05 18:05 50.38944 14.19586 7446 ft 265 kts 230°
2026-05-05 18:05 50.37821 14.17291 7082 ft 264 kts 230°
2026-05-05 18:05 50.36707 14.15013 6767 ft 258 kts 230°
2026-05-05 18:05 50.35657 14.12868 6597 ft 247 kts 230°
2026-05-05 18:06 50.34606 14.10727 6138 ft 248 kts 230°
2026-05-05 18:06 50.33894 14.09275 5813 ft 248 kts 229°
2026-05-05 18:06 50.32515 14.06466 5472 ft 245 kts 229°
2026-05-05 18:06 50.31333 14.04554 5122 ft 244 kts 207°
2026-05-05 18:07 50.29758 14.03739 4854 ft 236 kts 184°
2026-05-05 18:07 50.28145 14.03416 4640 ft 237 kts 184°
2026-05-05 18:07 50.26499 14.03108 4381 ft 238 kts 184°
2026-05-05 18:07 50.24846 14.02818 4134 ft 240 kts 184°
2026-05-05 18:08 50.23208 14.02546 4000 ft 238 kts 181°
2026-05-05 18:08 50.21611 14.02938 3968 ft 231 kts 149°
2026-05-05 18:08 50.20406 14.04555 4012 ft 229 kts 128°
2026-05-05 18:08 50.19434 14.06555 3943 ft 231 kts 124°
2026-05-05 18:09 50.18491 14.08544 3685 ft 228 kts 124°
2026-05-05 18:09 50.17549 14.10508 3374 ft 222 kts 124°
2026-05-05 18:09 50.16632 14.12417 3132 ft 215 kts 124°
2026-05-05 18:09 50.15763 14.14224 2845 ft 203 kts 123°
2026-05-05 18:10 50.14969 14.15876 2580 ft 178 kts 123°
2026-05-05 18:10 50.14267 14.17335 2350 ft 161 kts 122°
2026-05-05 18:10 50.13595 14.18736 2147 ft 161 kts 123°
2026-05-05 18:10 50.12930 14.20116 1934 ft 157 kts 124°
2026-05-05 18:11 50.12281 14.21453 1745 ft 152 kts 125°
2026-05-05 18:11 50.11672 14.22738 1505 ft 145 kts 125°
2026-05-05 18:11 50.11076 14.23968 1285 ft 142 kts 126°
2026-05-05 18:11 50.10494 14.25166 1170 ft 129 kts 126°
2026-05-05 18:12 50.10111 14.25968 1193 ft 58 kts 127°
2026-05-05 18:12 50.09895 14.26410 1203 ft 29 kts 124°
2026-05-05 18:12 50.09880 14.26699 1209 ft 28 kts 82°
2026-05-05 18:12 50.09901 14.26928 1208 ft 14 kts 82°
2026-05-05 18:13 50.09913 14.27054 1206 ft 8 kts 82°
2026-05-05 18:13 50.09915 14.27084 1205 ft 4 kts 82°
2026-05-05 18:13 50.09924 14.27127 1204 ft 7 kts 44°
2026-05-05 18:13 50.09961 14.27091 1201 ft 12 kts 307°
2026-05-05 18:14 50.10031 14.26947 1196 ft 21 kts 307°
2026-05-05 18:14 50.10135 14.26732 1183 ft 28 kts 307°
2026-05-05 18:14 50.10253 14.26489 1179 ft 27 kts 306°
2026-05-05 18:14 50.10373 14.26239 1176 ft 30 kts 306°
2026-05-05 18:15 50.10468 14.26044 1177 ft 17 kts 307°
2026-05-05 18:15 50.10515 14.25999 1174 ft 4 kts 47°
2026-05-05 18:15 50.10526 14.26066 1177 ft 10 kts 80°
2026-05-05 18:15 50.10537 14.26185 1176 ft 12 kts 91°
2026-05-05 18:16 50.10519 14.26283 1176 ft 5 kts 104°
2026-05-05 18:16 50.10526 14.26308 1176 ft 2 kts 52°
2026-05-05 18:16 50.10545 14.26331 1175 ft 5 kts 35°
2026-05-05 18:16 50.10558 14.26345 1173 ft 0 kts 34°